Waarnemingen

Advertentie
Mijn weer
Kempten, Duitsland (10946): temperatuur & dauwpunt: 11.08.2018 13:00:00 - 17.08.2018 13:00:00 (CEST)Kempten, Duitsland (10946): temperatuur 5cm & temperatuur -5cm: 11.08.2018 13:00:00 - 17.08.2018 13:00:00 (CEST)Kempten, Duitsland (10946): temperatuur -20cm & temperatuur -100cm: 11.08.2018 13:00:00 - 17.08.2018 13:00:00 (CEST)Kempten, Duitsland (10946): windsnelheid & windstoten: 11.08.2018 13:00:00 - 17.08.2018 13:00:00 (CEST)Kempten, Duitsland (10946): windrichting: 11.08.2018 13:00:00 - 17.08.2018 13:00:00 (CEST)Kempten, Duitsland (10946): luchtdruk: 11.08.2018 13:00:00 - 17.08.2018 13:00:00 (CEST)Kempten, Duitsland (10946): zicht: 11.08.2018 13:00:00 - 17.08.2018 13:00:00 (CEST)Kempten, Duitsland (10946): Zonneschijnduur: 11.08.2018 13:00:00 - 17.08.2018 13:00:00 (CEST)Kempten, Duitsland (10946): neerslag: 11.08.2018 13:00:00 - 17.08.2018 13:00:00 (CEST)
Datum & Tijd tt [°C] td [°C] tt 5cm [°C] tt -5cm [°C] tt -20cm [°C] tt -100cm [°C] ff [km/u] ff [kn] fx [km/u] fx [kn] dd ppp [hPa] vv [km] sd [min] rr [mm]
17.08.2018 13:00:00 26,5 11,0 31,3 28,5 21,0 19,4 9 5 19 11 ZW 1013,2 22 56 0,0
17.08.2018 12:00:00 26,0 12,7 29,8 25,2 20,1 19,4 5 3 14 8 NNW 1013,4 34 55 0,0
17.08.2018 11:00:00 24,4 11,7 28,0 22,9 19,4 19,4 3 2 9 5 ZZO 1013,8 26 53 0,0
17.08.2018 10:00:00 21,1 12,3 23,6 19,6 19,1 19,4 5 3 13 7 ZO 1014,3 28 60 0,0
17.08.2018 09:00:00 18,6 12,3 18,5 17,2 19,0 19,5 6 4 14 8 ZZO 1015,0 20 60 0,0
17.08.2018 08:00:00 15,9 11,1 14,5 15,4 19,3 19,5 6 4 14 8 ZZO 1015,4 22 40 0,0
17.08.2018 07:00:00 13,6 10,8 11,6 14,9 19,6 19,5 8 4 19 10 ZO 1015,9 28 0 0,0
17.08.2018 06:00:00 12,6 10,7 10,7 15,1 20,0 19,5 8 5 13 7 OZO 1015,7 23 0 0,0
17.08.2018 05:00:00 13,6 11,0 11,0 15,5 20,3 19,5 4 2 12 6 ZZO 1015,3 29 0 0,0
17.08.2018 04:00:00 13,4 11,3 11,5 16,0 20,8 19,5 9 5 13 7 OZO 1015,5 27 0 0,0
17.08.2018 03:00:00 13,5 11,6 11,8 16,5 21,2 19,5 9 5 12 6 OZO 1015,6 25 0 0,0
17.08.2018 02:00:00 13,6 11,9 12,1 17,1 21,7 19,5 8 5 10 5 OZO 1015,7 22 0 0,0
17.08.2018 01:00:00 13,6 11,7 12,2 17,8 22,2 19,5 6 4 10 5 O 1015,9 24 0 0,0
17.08.2018 00:00:00 14,6 12,0 13,1 18,7 22,7 19,5 6 3 10 5 O 1015,7 28 0 0,0
16.08.2018 23:00:00 15,9 12,5 14,1 19,8 23,3 19,5 5 3 7 4 O 1015,2 30 0 0,0
16.08.2018 22:00:00 17,5 12,9 15,3 21,1 23,8 19,5 3 2 11 6 NNO 1014,5 37 0 0,0
16.08.2018 21:00:00 20,1 12,9 17,4 22,7 24,2 19,5 5 3 10 6 NO 1013,5 35 9 0,0
16.08.2018 20:00:00 24,0 11,2 21,6 24,6 24,4 19,5 4 2 12 6 ONO 1012,2 65 60 0,0
16.08.2018 19:00:00 26,0 8,6 28,6 27,3 24,3 19,5 6 3 13 7 O 1011,9 43 60 0,0
16.08.2018 18:00:00 26,5 9,8 31,7 28,6 23,9 19,6 6 3 14 8 O 1011,9 37 60 0,0
16.08.2018 17:00:00 26,3 9,2 32,6 29,0 23,3 19,6 8 4 14 8 O 1012,1 19 60 0,0
16.08.2018 16:00:00 26,1 9,9 31,5 28,8 22,4 19,6 7 4 15 8 ONO 1012,6 35 60 0,0
16.08.2018 15:00:00 25,9 10,5 32,6 27,9 21,5 19,6 8 4 16 9 O 1013,1 13 60 0,0
16.08.2018 14:00:00 25,4 10,1 30,2 26,6 20,7 19,6 6 3 17 9 NNO 1013,6 18 60 0,0
16.08.2018 13:00:00 24,2 10,7 28,3 25,2 19,8 19,6 9 5 20 11 ONO 1014,3 35 60 0,0
16.08.2018 12:00:00 23,9 10,5 27,0 23,3 19,0 19,6 8 4 18 10 NO 1014,9 38 60 0,0
16.08.2018 11:00:00 21,4 11,6 23,9 20,8 18,4 19,6 5 3 10 5 N 1016,2 30 60 0,0
16.08.2018 10:00:00 19,5 12,4 20,5 18,3 18,0 19,6 4 2 10 6 ZZO 1017,0 28 60 0,0
16.08.2018 09:00:00 16,3 11,8 15,5 16,2 17,9 19,6 4 2 13 7 Z 1018,1 26 60 0,0
16.08.2018 08:00:00 14,0 10,9 12,9 13,9 18,2 19,6 5 3 11 6 ZO 1019,0 20 39 0,0
16.08.2018 07:00:00 10,4 9,5 9,9 13,4 18,5 19,6 8 5 12 7 OZO 1020,2 15 0 0,0
16.08.2018 06:00:00 11,1 10,1 9,9 13,7 18,8 19,6 8 4 11 6 OZO 1019,9 14 0 0,0
16.08.2018 05:00:00 11,0 10,1 9,9 14,1 19,2 19,6 7 4 10 6 OZO 1020,2 14 0 0,0
16.08.2018 04:00:00 11,1 10,2 10,1 14,5 19,6 19,7 8 4 11 6 OZO 1020,3 13 0 0,0
16.08.2018 03:00:00 11,6 10,5 10,6 15,0 20,0 19,7 6 4 9 5 OZO 1020,5 16 0 0,0
16.08.2018 02:00:00 12,2 10,9 11,0 15,7 20,4 19,7 6 4 10 5 O 1020,7 19 0 0,0
16.08.2018 01:00:00 13,1 11,6 11,9 16,3 20,9 19,7 8 5 11 6 OZO 1020,6 24 0 0,0
16.08.2018 00:00:00 13,4 11,8 12,1 17,0 21,4 19,7 6 4 10 6 OZO 1020,6 22 0 0,0
15.08.2018 23:00:00 14,1 12,0 12,5 17,8 21,9 19,7 5 3 10 5 O 1020,4 25 0 0,0
15.08.2018 22:00:00 15,4 12,4 13,9 18,9 22,3 19,7 4 2 9 5 O 1020,0 31 0 0,0
15.08.2018 21:00:00 18,0 13,0 15,8 20,3 22,8 19,7 4 2 6 3 O 1018,7 43 8 0,0
15.08.2018 20:00:00 22,2 9,8 19,8 21,9 23,1 19,7 4 2 14 8 NW 1017,4 51 60 0,0
15.08.2018 19:00:00 23,5 8,8 25,1 24,1 23,1 19,7 4 2 14 8 WNW 1017,0 67 60 0,0
15.08.2018 18:00:00 23,4 8,6 26,9 25,3 22,9 19,7 5 3 17 9 NNW 1017,3 49 60 0,0
15.08.2018 17:00:00 24,0 10,2 28,1 26,1 22,5 19,7 8 4 19 11 WNW 1017,3 16 52 0,0
15.08.2018 16:00:00 23,1 10,7 28,0 26,1 22,0 19,7 8 4 16 9 NNW 1017,8 6 49 0,0
15.08.2018 15:00:00 22,5 10,3 27,8 25,3 21,4 19,8 9 5 16 9 N 1018,2 55 46 0,0
15.08.2018 14:00:00 21,2 10,2 25,7 24,4 20,8 19,8 6 3 15 8 N 1019,0 26 26 0,0
15.08.2018 13:00:00 20,9 11,3 26,2 23,5 20,2 19,8 5 3 16 8 WNW 1019,2 31 31 0,0
15.08.2018 12:00:00 20,2 11,6 25,6 23,2 19,5 19,8 4 2 16 9 NW 1019,6 29 53 0,0
15.08.2018 11:00:00 19,2 12,1 21,9 21,1 18,9 19,8 6 4 13 7 N 1020,0 26 56 0,0
15.08.2018 10:00:00 17,7 11,8 18,9 19,5 18,6 19,8 5 3 9 5 N 1020,1 21 56 0,0
15.08.2018 09:00:00 16,7 12,5 15,6 17,1 18,5 19,8 2 1 5 3 ZZO 1020,3 21 60 0,0
15.08.2018 08:00:00 14,3 12,7 13,4 14,8 18,7 19,8 3 1 8 4 OZO 1020,9 23 40 0,0
15.08.2018 07:00:00 11,7 11,0 11,0 14,6 19,0 19,8 4 2 7 4 O 1021,5 14 0 0,0
15.08.2018 06:00:00 12,1 11,3 10,7 15,2 19,3 19,8 2 1 6 3 O 1021,1 13 0 0,0
15.08.2018 05:00:00 13,6 12,7 12,4 16,0 19,5 19,8 2 1 6 3 OZO 1020,8 15 0 0,0
15.08.2018 04:00:00 14,2 13,2 13,8 16,3 19,7 19,8 3 1 9 5 ZZW 1020,3 31 0 0,0
15.08.2018 03:00:00 12,8 12,1 12,0 16,1 20,1 19,8 5 3 8 4 OZO 1020,4 9 0 0,0
15.08.2018 02:00:00 14,2 13,4 13,0 16,9 20,3 19,8 3 2 7 4 O 1020,1 14 0 0,0
15.08.2018 01:00:00 14,7 13,8 14,0 17,5 20,6 19,8 3 2 6 3 OZO 1019,8 14 0 0,0
15.08.2018 00:00:00 15,3 14,1 14,9 17,9 20,9 19,9 2 1 4 2 NNW 1019,3 22 0 0,0
14.08.2018 23:00:00 15,6 14,2 15,1 18,4 21,2 19,9 2 1 7 4 O 1019,0 28 0 0,0
14.08.2018 22:00:00 15,9 14,4 15,2 18,9 21,4 19,9 5 3 8 4 OZO 1018,4 26 0 0,0
14.08.2018 21:00:00 16,3 14,2 15,9 19,5 21,7 19,9 4 2 10 5 ZZO 1017,6 33 0 0,0
14.08.2018 20:00:00 17,5 14,0 16,9 20,6 21,8 19,9 6 3 11 6 Z 1016,7 34 2 0,5
14.08.2018 19:00:00 19,5 12,0 20,9 21,9 21,8 19,9 5 3 14 7 ZO 1015,5 45 31 0,0
14.08.2018 18:00:00 18,9 12,7 20,2 21,6 21,8 19,9 7 4 19 10 Z 1015,7 61 23 0,0
14.08.2018 17:00:00 20,3 11,5 24,2 23,2 21,6 19,9 11 6 18 10 ZZW 1015,3 29 36 0,0
14.08.2018 16:00:00 17,0 13,2 18,1 21,1 21,6 19,9 5 3 21 11 ZZW 1016,0 64 0 0,4
14.08.2018 15:00:00 16,9 11,0 15,3 22,3 21,4 19,9 16 9 35 19 W 1016,5 12 22 0,0
14.08.2018 14:00:00 19,3 12,3 21,4 24,5 20,9 19,9 13 7 25 14 ZZW 1015,1 36 42 0,0
14.08.2018 13:00:00 19,0 13,8 21,7 22,3 20,4 19,9 13 7 24 13 ZZW 1015,0 35 13 0,0
14.08.2018 12:00:00 19,2 14,5 22,9 22,2 19,9 19,9 11 6 19 11 ZZW 1014,8 35 44 0,0
14.08.2018 11:00:00 16,7 14,2 18,9 19,8 19,6 19,9 10 5 19 11 Z 1015,5 38 3 0,0
14.08.2018 10:00:00 15,8 14,1 16,9 18,4 19,5 19,9 8 4 14 8 Z 1015,7 21 0 0,0
14.08.2018 09:00:00 15,1 14,3 15,5 17,0 19,6 19,9 6 4 12 7 Z 1015,6 26 0 2,0
14.08.2018 08:00:00 14,8 14,1 15,1 16,5 19,9 19,9 4 2 9 5 ZZO 1015,2 5 0 8,8
14.08.2018 07:00:00 14,5 13,6 14,4 16,7 20,4 19,9 3 1 16 9 Z 1014,7 5 0 11,0
14.08.2018 06:00:00 15,7 12,9 15,4 17,8 20,6 19,9 4 2 8 5 WZW 1013,6 40 0 0,0
14.08.2018 05:00:00 15,7 12,4 15,3 17,8 20,8 19,9 5 3 11 6 Z 1013,4 54 0 0,0
14.08.2018 04:00:00 16,0 12,2 15,4 17,8 21,0 19,9 5 3 12 7 ZW 1013,2 54 0 0,0
14.08.2018 03:00:00 16,1 12,6 15,7 18,0 21,3 19,9 8 4 20 11 ZZW 1013,4 56 0 0,0
14.08.2018 02:00:00 16,0 13,0 15,5 18,1 21,6 20,0 13 7 29 16 ZZW 1013,4 56 0 0,0
14.08.2018 01:00:00 16,7 13,1 15,3 18,7 21,9 20,0 11 6 31 17 ZW 1013,1 52 0 0,0
14.08.2018 00:00:00 17,0 13,2 16,5 19,3 22,2 20,0 9 5 19 11 Z 1012,7 46 0 0,0
13.08.2018 23:00:00 17,6 14,3 16,9 19,8 22,5 20,0 6 4 17 9 Z 1012,0 39 0 0,0
13.08.2018 22:00:00 18,6 14,4 17,8 20,4 22,7 20,0 6 3 13 7 ZZW 1011,4 33 0 0,0
13.08.2018 21:00:00 18,9 15,0 18,2 21,1 23,0 20,0 5 3 14 8 ZZW 1010,8 36 0 0,0
13.08.2018 20:00:00 19,4 14,9 19,0 21,8 23,2 20,0 7 4 16 9 Z 1010,0 42 0 0,0
13.08.2018 19:00:00 19,5 14,7 19,6 22,4 23,4 20,0 9 5 19 10 ZZW 1010,0 45 0 0,0
13.08.2018 18:00:00 19,6 14,4 20,0 22,9 23,6 20,0 8 5 - - ZZW 1010,3 45 0 0,0
13.08.2018 17:00:00 19,8 14,1 20,0 23,5 23,7 20,0 - - - - - 1011,2 32 0 0,0
13.08.2018 16:00:00 20,3 14,5 20,3 24,6 23,8 20,0 - - - - - 1011,1 36 0 0,3
13.08.2018 15:00:00 19,0 14,0 16,8 24,8 23,7 20,0 14 8 38 21 W 1011,4 4,1 0 -
13.08.2018 14:00:00 23,9 11,6 25,6 27,6 23,1 20,0 13 7 31 17 W 1009,2 38 11 0,0
13.08.2018 13:00:00 25,3 12,4 30,0 28,9 22,2 20,0 12 6 32 17 WNW 1009,2 32 53 -
13.08.2018 12:00:00 25,7 13,5 29,4 26,1 21,3 20,0 10 6 27 14 W 1009,2 20 58 0,0
13.08.2018 11:00:00 24,5 12,9 26,7 23,1 20,8 20,0 16 9 33 18 W 1009,9 16 60 -
13.08.2018 10:00:00 21,9 12,9 23,2 20,2 20,7 20,1 7 4 13 7 Z 1010,6 33 7 -
13.08.2018 09:00:00 17,9 13,2 17,1 18,9 20,7 20,1 4 2 12 7 Z 1011,3 14 5 0,0
13.08.2018 08:00:00 18,0 12,0 18,2 17,9 20,9 20,1 7 4 13 7 ZO 1010,7 42 29 0,0
13.08.2018 07:00:00 16,1 11,5 13,8 17,2 21,1 20,1 8 5 18 10 ZO 1011,2 37 0 0,0
13.08.2018 06:00:00 14,9 11,7 13,5 17,1 21,5 20,1 9 5 15 8 OZO 1012,1 33 0 0,0
13.08.2018 05:00:00 14,9 11,7 12,5 17,5 21,9 20,1 9 5 15 8 OZO 1012,2 32 0 0,0
13.08.2018 04:00:00 16,3 12,0 13,7 18,1 22,3 20,1 9 5 18 10 ZO 1011,9 36 0 0,0
13.08.2018 03:00:00 16,6 12,2 14,4 18,6 22,7 20,1 10 5 18 10 ZO 1012,4 34 0 0,0
13.08.2018 02:00:00 16,8 12,5 14,1 19,3 23,2 20,2 8 5 18 10 ZO 1013,0 34 0 0,0
13.08.2018 01:00:00 15,7 12,6 14,1 20,1 23,7 20,2 9 5 11 6 OZO 1013,8 33 0 0,0
13.08.2018 00:00:00 18,0 12,3 15,5 21,1 24,2 20,2 8 4 13 7 ZZO 1012,8 39 0 0,0
12.08.2018 23:00:00 17,9 12,9 16,9 22,2 24,7 20,2 7 4 11 6 ZO 1013,3 32 0 0,0
12.08.2018 22:00:00 18,2 13,4 17,1 23,2 25,3 20,2 7 4 9 5 O 1013,4 34 0 0,0
12.08.2018 21:00:00 21,1 13,2 18,7 25,0 25,7 20,2 0 0 11 6 N 1012,4 40 11 0,0
12.08.2018 20:00:00 25,3 10,9 23,1 27,4 25,9 20,2 6 4 14 7 NW 1011,1 42 60 0,0
12.08.2018 19:00:00 26,4 11,2 28,7 30,2 25,8 20,2 9 5 16 9 N 1010,8 28 60 0,0
12.08.2018 18:00:00 27,1 11,0 30,7 31,8 25,4 20,3 8 4 19 10 N 1011,1 29 60 0,0
12.08.2018 17:00:00 27,8 11,4 31,9 32,8 24,7 20,3 10 6 18 10 NW 1011,3 15 60 0,0
12.08.2018 16:00:00 27,0 11,0 32,3 32,7 23,8 20,3 8 4 20 11 WNW 1012,1 35 60 0,0
12.08.2018 15:00:00 27,6 11,4 32,9 32,1 22,6 20,3 8 4 19 10 NW 1012,5 22 60 0,0
12.08.2018 14:00:00 25,6 9,8 31,5 30,8 21,3 20,3 8 5 16 8 N 1013,6 21 60 0,0
12.08.2018 13:00:00 25,1 10,3 30,1 28,1 20,0 20,3 5 3 18 10 NNO 1014,2 31 60 0,0
12.08.2018 12:00:00 23,3 10,0 28,0 24,5 19,0 20,3 6 3 19 10 N 1015,1 28 60 0,0
12.08.2018 11:00:00 22,1 12,3 24,0 21,2 18,1 20,4 3 1 11 6 NNW 1015,6 25 60 0,0
12.08.2018 10:00:00 19,0 10,2 20,2 18,0 17,7 20,4 4 2 10 5 ZZO 1017,0 17 60 0,0
12.08.2018 09:00:00 14,8 9,6 15,4 15,2 17,6 20,4 5 3 10 5 Z 1018,5 14 60 0,0
12.08.2018 08:00:00 12,6 9,4 11,1 12,6 17,8 20,4 5 3 9 5 O 1019,5 26 39 0,0
12.08.2018 07:00:00 8,0 7,0 7,3 12,0 18,2 20,4 8 4 9 5 OZO 1021,4 19 0 0,0
12.08.2018 06:00:00 7,6 6,5 6,9 12,1 18,6 20,4 8 4 10 5 OZO 1021,8 19 0 0,0
12.08.2018 05:00:00 8,0 6,9 7,0 12,6 19,0 20,4 6 3 9 5 OZO 1022,2 19 0 0,0
12.08.2018 04:00:00 8,5 7,2 7,4 13,1 19,4 20,4 6 3 9 5 OZO 1022,5 25 0 0,0
12.08.2018 03:00:00 9,2 7,9 7,8 13,7 19,8 20,5 7 4 11 6 O 1022,8 21 0 0,0
12.08.2018 02:00:00 9,7 8,0 8,2 14,3 20,3 20,5 8 4 11 6 OZO 1023,2 27 0 0,0
12.08.2018 01:00:00 10,1 8,3 8,7 15,1 20,8 20,5 7 4 10 5 OZO 1023,5 27 0 0,0
12.08.2018 00:00:00 10,9 8,4 9,2 15,9 21,4 20,5 7 4 10 5 OZO 1023,6 33 0 0,0
11.08.2018 23:00:00 11,6 8,6 9,9 16,9 21,9 20,5 7 4 10 6 O 1023,6 35 0 0,0
11.08.2018 22:00:00 13,4 8,9 11,8 18,2 22,4 20,5 7 4 10 5 O 1022,9 40 0 0,0
11.08.2018 21:00:00 16,0 8,9 13,1 20,1 22,9 20,5 0 0 11 6 N 1022,0 44 13 0,0
11.08.2018 20:00:00 20,8 4,9 18,3 22,4 23,0 20,5 6 3 16 9 WZW 1020,6 49 60 0,0
11.08.2018 19:00:00 21,9 5,7 22,9 25,2 22,9 20,5 9 5 22 12 W 1020,3 27 60 0,0
11.08.2018 18:00:00 22,2 5,9 24,8 26,2 22,4 20,6 11 6 23 13 W 1020,1 26 60 0,0
11.08.2018 17:00:00 21,4 7,1 25,3 26,1 21,9 20,6 11 6 22 12 WZW 1020,6 19 57 0,0
11.08.2018 16:00:00 20,3 7,5 21,8 24,2 21,4 20,6 5 3 27 15 ZW 1021,6 46 48 0,0
11.08.2018 15:00:00 20,2 7,2 22,4 23,1 21,0 20,6 9 5 28 15 W 1022,2 29 32 0,0
11.08.2018 14:00:00 20,6 7,7 23,8 23,5 20,4 20,6 12 7 21 12 W 1022,3 27 48 0,0
11.08.2018 13:00:00 19,5 7,9 22,5 22,4 19,7 20,6 10 6 22 12 W 1022,9 34 56 0,0

tt = temperatuur
td = dauwpunt
tt 5cm = temperatuur 5cm
tt -5cm = temperatuur -5cm
tt -20cm = temperatuur -20cm
tt -100cm = temperatuur -100cm
ff = windsnelheid
fx = windstoten
dd = windrichting
ppp = luchtdruk
vv = zicht
sd = Zonneschijnduur
rr = neerslag

Weerstations in de omgeving